Погода в Истре

Россия / Московская область     55°46′27″N   37°08′58″E
темп.,
°C
ветер,
м/с
пор.,
м/с
влажн.,
%
обл.,
%
осадки,
мм/ч
давл.,
гПа
погр.,
м
23 апреля, пт
пт2300:00+8ю4128272 0.0 1014342
03:00+7ю3109138 0.0 1014298
06:00+6ю41191100 0.0 1014325
09:00+10ю51175100 0.4 1014559
12:00+15ю7124863 0.3 10121985
15:00+15ю71247100 0.6 10111951
18:00+7з6882100 1.1 1012558
21:00+6зюз2284100 3.0 1013360
24 апреля, сб
сб2400:00+6ююв1184100 0.1 1011267
03:00+5юв1184100 0.3 1009325
06:00+4сз3595100 2.9 1008593
09:00+4сз2594100 4.1 1007447
12:00+4з3692100 0.9 1007592
15:00+8зсз2461100 1.3 10061140
18:00+7сз3568100 1.4 1006981
21:00+5сз3982100 2.4 1006842
25 апреля, вс
вс2500:00+3зсз510745 0.1 1007704
03:00+1з411795 0.1 1008429
06:000з5118993 0.0 1008597
09:00+3з4876100 0.1 10091239
12:00+6зюз6941100 0.1 10092336
15:00+8зюз6841100 0.3 10091997
18:00+6зюз575355 0.8 10091282
21:00+3зюз486579 0.8 1010544
26 апреля, пн
пн2600:00+2зюз39735 0.0 1010337
03:000юз39785 0.0 1011315
06:000юз49805 0.0 1011359
09:00+4зюз476570 0.0 10111053
12:00+5зюз575398 0.1 10111548
15:00+7з464499 0.3 10101844
18:00+7з254437 0.4 10101492
21:00+4юз23575 0.4 101092
27 апреля, вт
вт2700:00+2юз23646 0.0 100992
03:00+1з23695 0.0 1009100
06:00+1з237376 0.0 1008113
09:00+5зюз235310 0.0 1007823
12:00+8зюз4534100 0.0 10062421
15:00+9з4629100 0.0 10062695
18:00+8зюз564499 0.2 10061585
21:00+5зюз49625 0.2 1007479